CW6666 Weather Reports


Display with metric or nautical units.
time (UTC)temp
F
wind
direction
speed
MPH
gust
MPH
rain 1hr
in
rain 24hr
in
rain mn
in
humidity
%
barometer
mb
20150802162116 81 214 11.0 15.0 0.00 0.47 0.02 90 997.4
20150802161616 80 190 5.0 14.0 0.00 0.47 0.02 91 997.4
20150802161116 80 236 0.0 9.0 0.01 0.47 0.02 91 997.8
20150802160615 80 300 1.0 11.0 0.01 0.47 0.02 91 997.8
20150802160115 80 240 3.0 11.0 0.01 0.47 0.02 91 997.8
20150802155615 80 197 1.0 10.0 0.01 0.47 0.02 91 997.9
20150802155115 80 231 3.0 10.0 0.01 0.47 0.02 91 997.9
20150802154615 80 232 2.0 10.0 0.01 0.47 0.02 92 997.9
20150802154115 80 234 5.0 14.0 0.01 0.47 0.02 92 997.9
20150802153615 80 199 0.0 14.0 0.01 0.47 0.02 92 997.9
20150802153114 80 220 0.0 9.0 0.02 0.47 0.02 92 997.9
20150802152615 80 195 2.0 9.0 0.02 0.47 0.02 92 998.0
20150802152114 80 223 2.0 9.0 0.02 0.47 0.02 92 998.0
20150802151614 80 219 4.0 14.0 0.02 0.47 0.02 92 998.0
20150802151114 80 225 2.0 14.0 0.01 0.46 0.01 92 998.3
20150802150614 80 190 4.0 10.0 0.01 0.46 0.01 92 998.3
20150802150114 80 188 0.0 10.0 0.01 0.46 0.01 92 998.3
20150802145614 80 236 5.0 10.0 0.01 0.46 0.01 92 998.3
20150802145113 80 210 0.0 7.0 0.01 0.46 0.01 92 998.3
20150802144613 80 207 2.0 9.0 0.01 0.46 0.01 92 998.3
20150802144114 80 213 4.0 14.0 0.01 0.46 0.01 92 998.3
20150802143613 80 225 5.0 14.0 0.01 0.46 0.01 92 998.3
20150802143113 80 209 1.0 10.0 0.00 0.45 0.00 92 998.3
20150802142613 80 207 0.0 10.0 0.00 0.45 0.00 92 998.5
20150802142113 80 217 2.0 9.0 0.00 0.45 0.00 92 998.5
20150802141612 80 190 3.0 7.0 0.00 0.45 0.00 92 998.5
20150802141112 80 293 4.0 11.0 0.00 0.45 0.00 92 998.9
20150802140612 80 309 1.0 11.0 0.00 0.45 0.00 92 998.9
20150802140112 80 165 1.0 11.0 0.00 0.45 0.00 92 998.9
20150802135612 81 274 0.0 11.0 0.00 0.45 0.45 92 999.0
20150802135112 81 262 0.0 11.0 0.00 0.45 0.45 92 999.0
20150802134612 81 275 9.0 11.0 0.00 0.45 0.45 92 999.0
20150802134111 81 227 0.0 10.0 0.00 0.45 0.45 93 999.0
20150802133611 81 225 3.0 7.0 0.00 0.45 0.45 93 999.0
20150802133111 81 236 1.0 7.0 0.00 0.45 0.45 93 999.0
20150802132611 81 215 2.0 7.0 0.00 0.45 0.45 93 999.4
20150802132111 80 196 2.0 7.0 0.00 0.45 0.45 93 999.4
20150802131611 80 249 0.0 8.0 0.00 0.45 0.45 93 999.4
20150802131110 80 226 0.0 8.0 0.00 0.45 0.45 93 999.4
20150802130610 80 226 0.0 8.0 0.00 0.45 0.45 93 999.4
20150802130110 80 267 2.0 10.0 0.00 0.45 0.45 93 999.4
20150802125610 80 209 1.0 10.0 0.00 0.45 0.45 93 999.4
20150802125110 80 209 9.0 10.0 0.00 0.45 0.45 93 999.4
20150802124610 80 200 2.0 10.0 0.00 0.45 0.45 94 999.4
20150802124110 79 223 0.0 10.0 0.00 0.45 0.45 94 999.4
20150802123609 79 296 3.0 9.0 0.00 0.45 0.45 94 999.4
20150802123110 79 254 1.0 5.0 0.00 0.45 0.45 94 999.4
20150802122609 79 284 0.0 5.0 0.00 0.45 0.45 94 999.5
20150802122109 79 261 2.0 6.0 0.00 0.45 0.45 94 999.5
20150802121609 78 219 2.0 7.0 0.00 0.45 0.45 94 999.5
20150802121109 78 254 0.0 7.0 0.00 0.45 0.45 95 999.6
20150802120609 78 267 0.0 7.0 0.00 0.45 0.45 95 999.6
20150802120108 78 231 3.0 6.0 0.00 0.45 0.45 95 999.6
20150802115609 78 257 0.0 6.0 0.00 0.45 0.45 95 999.7
20150802115108 78 224 3.0 6.0 0.00 0.45 0.45 95 999.7
20150802114608 78 227 0.0 10.0 0.01 0.45 0.45 95 999.7
20150802114108 77 235 6.0 10.0 0.01 0.45 0.45 95 999.8
20150802113608 77 236 6.0 7.0 0.02 0.45 0.45 95 999.8
20150802113108 77 209 3.0 7.0 0.02 0.45 0.45 95 999.8
20150802112607 77 240 3.0 10.0 0.02 0.45 0.45 95 999.8
20150802112108 77 242 2.0 12.0 0.02 0.45 0.45 95 999.8
20150802111607 77 226 0.0 12.0 0.03 0.45 0.45 95 999.8
20150802111107 77 263 1.0 7.0 0.08 0.45 0.45 95 999.8
20150802110607 77 236 0.0 7.0 0.10 0.45 0.45 95 999.8
20150802110107 77 217 3.0 6.0 0.10 0.45 0.45 95 999.8
20150802105607 77 242 0.0 4.0 0.12 0.45 0.45 95 999.6
20150802105106 77 244 0.0 12.0 0.12 0.45 0.45 95 999.6
20150802104607 76 211 0.0 12.0 0.11 0.44 0.44 94 999.6
20150802104107 76 200 2.0 4.0 0.11 0.44 0.44 94 999.8
20150802103606 76 293 0.0 7.0 0.10 0.43 0.43 93 999.8
20150802103106 77 292 1.0 7.0 0.10 0.43 0.43 93 999.8
20150802102606 77 272 4.0 13.0 0.10 0.43 0.43 93 999.8
20150802102106 78 294 5.0 17.0 0.10 0.43 0.43 93 999.9
20150802101605 79 271 5.0 17.0 0.09 0.42 0.42 92 999.9
20150802101105 80 262 9.0 14.0 0.04 0.37 0.37 92 999.3
20150802100605 80 259 0.0 5.0 0.14 0.35 0.35 93 999.3
20150802100105 80 232 0.0 5.0 0.19 0.35 0.35 93 999.3
20150802095605 80 255 0.0 5.0 0.17 0.33 0.33 93 999.4
20150802095105 80 220 0.0 4.0 0.17 0.33 0.33 93 999.4
20150802094605 80 202 3.0 5.0 0.17 0.33 0.33 93 999.4
20150802094105 80 204 0.0 5.0 0.17 0.33 0.33 93 999.5
20150802093604 80 230 2.0 5.0 0.17 0.33 0.33 92 999.5
20150802093104 80 269 0.0 5.0 0.17 0.33 0.33 92 999.5
20150802092604 80 311 0.0 5.0 0.17 0.33 0.33 91 999.8
20150802092104 80 277 1.0 7.0 0.17 0.33 0.33 91 999.8
20150802091604 81 282 1.0 20.0 0.17 0.33 0.33 90 999.8
20150802091104 82 290 4.0 20.0 0.17 0.33 0.33 89 999.4
20150802090604 83 287 11.0 12.0 0.05 0.21 0.21 86 999.4
20150802090103 83 286 4.0 12.0 0.00 0.16 0.16 86 999.4
20150802085603 83 241 1.0 10.0 0.00 0.16 0.16 86 999.0
20150802085103 83 275 1.0 10.0 0.00 0.16 0.16 86 999.0
20150802084604 83 303 4.0 6.0 0.00 0.16 0.16 86 999.0
20150802084103 83 300 1.0 6.0 0.00 0.16 0.16 86 999.0
20150802083603 83 257 2.0 7.0 0.00 0.16 0.16 85 999.0
20150802083102 83 223 3.0 7.0 0.00 0.16 0.16 85 999.0
20150802082602 83 263 1.0 7.0 0.00 0.16 0.16 85 999.2
20150802082102 83 252 4.0 7.0 0.00 0.16 0.16 85 999.2
20150802081602 83 244 1.0 7.0 0.00 0.16 0.16 85 999.2
20150802081102 83 296 4.0 7.0 0.00 0.16 0.16 85 999.4
20150802080602 83 292 2.0 9.0 0.00 0.16 0.16 85 999.4
20150802080102 83 254 3.0 9.0 0.00 0.16 0.16 85 999.4
20150802075602 83 300 4.0 10.0 0.00 0.16 0.16 85 999.4
20150802075101 83 291 2.0 10.0 0.00 0.16 0.16 85 999.4
20150802074602 83 304 4.0 11.0 0.00 0.16 0.16 85 999.4
20150802074101 83 277 2.0 11.0 0.00 0.16 0.16 85 999.4
20150802073601 83 298 4.0 14.0 0.00 0.16 0.16 85 999.4
20150802073101 83 300 4.0 15.0 0.00 0.16 0.16 85 999.4
20150802072601 83 300 12.0 15.0 0.00 0.16 0.16 85 999.4
20150802072101 83 297 3.0 12.0 0.00 0.16 0.16 85 999.4
20150802071601 83 318 2.0 11.0 0.00 0.16 0.16 85 999.4
20150802071101 83 309 4.0 10.0 0.00 0.16 0.16 86 999.3
20150802070600 83 298 4.0 9.0 0.00 0.16 0.16 86 999.3
20150802070130 83 259 1.0 10.0 0.00 0.16 0.16 86 999.3
20150802065600 83 298 4.0 11.0 0.00 0.16 0.16 86 999.4
20150802065100 83 277 2.0 11.0 0.00 0.16 0.16 86 999.4
20150802064630 83 291 3.0 9.0 0.00 0.16 0.16 86 999.4
20150802064130 83 309 4.0 10.0 0.00 0.16 0.16 86 999.4
20150802063559 83 303 3.0 12.0 0.00 0.16 0.16 86 999.4
20150802063059 83 301 6.0 12.0 0.00 0.16 0.16 86 999.4
20150802062559 83 310 6.0 15.0 0.00 0.16 0.16 85 999.4
20150802062059 83 292 5.0 15.0 0.00 0.16 0.16 85 999.4
20150802061559 83 282 5.0 12.0 0.00 0.18 0.16 86 999.4
20150802061101 84 319 7.0 12.0 0.00 0.34 0.16 86 999.5
20150802060558 84 271 1.0 14.0 0.00 0.36 0.16 85 999.5
20150802060129 84 306 4.0 14.0 0.00 0.37 0.16 85 999.5
20150802055559 84 295 6.0 13.0 0.00 0.37 0.16 85 999.8
20150802055058 84 324 8.0 13.0 0.00 0.45 0.16 85 999.8
20150802054628 84 324 6.0 13.0 0.00 0.48 0.16 84 999.8
20150802054128 84 306 9.0 11.0 0.00 0.55 0.16 84 999.9
20150802053627 84 301 5.0 10.0 0.00 0.57 0.16 84 999.9
20150802053128 84 298 3.0 11.0 0.00 0.57 0.16 84 999.9
20150802052629 84 314 10.0 11.0 0.00 0.57 0.16 83 999.9
20150802052129 85 307 5.0 11.0 0.00 0.57 0.16 84 999.9
20150802051628 85 310 4.0 11.0 0.00 0.57 0.16 83 999.9
20150802051127 85 292 6.0 11.0 0.00 0.57 0.16 83 999.9
20150802050629 85 300 6.0 11.0 0.00 0.57 0.16 83 999.9
20150802050130 85 244 5.0 11.0 0.00 0.57 0.16 83 999.9
20150802045628 85 304 6.0 11.0 0.00 0.57 0.16 83 1000.0
20150802045126 85 317 4.0 11.0 0.00 0.57 0.16 83 1000.0
20150802044627 85 306 5.0 11.0 0.00 0.57 0.16 82 1000.0
20150802044126 85 330 0.0 11.0 0.00 0.57 0.16 84 1000.3
20150802043626 85 292 4.0 14.0 0.00 0.57 0.16 82 1000.3
20150802043126 85 306 9.0 14.0 0.00 0.57 0.16 83 1000.3
20150802042626 85 305 4.0 15.0 0.00 0.57 0.16 85 1000.4
20150802042125 85 300 5.0 15.0 0.00 0.57 0.16 84 1000.4
20150802041626 85 296 12.0 13.0 0.00 0.57 0.16 83 1000.4
20150802041125 85 305 4.0 15.0 0.01 0.57 0.16 84 1000.4
20150802040625 85 306 1.0 15.0 0.01 0.57 0.16 84 1000.4
20150802040125 85 331 8.0 10.0 0.01 0.57 0.16 84 1000.4
20150802035625 85 310 3.0 10.0 0.01 0.57 0.16 85 1000.7
20150802035125 85 348 4.0 9.0 0.01 0.57 0.16 85 1000.7
20150802034624 85 360 1.0 7.0 0.01 0.57 0.16 87 1000.7
20150802034124 85 349 3.0 6.0 0.01 0.57 0.16 87 1000.9
20150802033624 85 300 3.0 9.0 0.01 0.57 0.16 89 1000.9
20150802033124 84 331 3.0 10.0 0.01 0.57 0.16 88 1000.9
20150802032624 84 334 2.0 10.0 0.01 0.57 0.16 87 1001.0
20150802032124 84 321 5.0 10.0 0.01 0.57 0.16 88 1001.0
20150802031624 84 324 4.0 15.0 0.01 0.57 0.16 84 1001.0
20150802031124 85 30 5.0 15.0 0.00 0.56 0.15 80 1001.0
20150802030624 87 309 9.0 13.0 0.00 0.56 0.15 79 1001.0
20150802030123 88 335 1.0 9.0 0.00 0.56 0.15 79 1001.0
20150802025623 87 349 0.0 9.0 0.00 0.56 0.15 81 1001.1
20150802025123 87 298 6.0 13.0 0.00 0.56 0.15 81 1001.1
20150802024623 86 305 5.0 13.0 0.00 0.56 0.15 81 1001.1
20150802024123 86 300 9.0 13.0 0.00 0.56 0.15 81 1001.5
20150802023623 86 273 8.0 12.0 0.00 0.56 0.15 82 1001.5
20150802023122 86 280 7.0 11.0 0.00 0.56 0.15 84 1001.5
20150802022622 86 313 4.0 11.0 0.00 0.56 0.15 83 1001.9
20150802022122 86 297 6.0 11.0 0.00 0.56 0.15 81 1001.9
20150802021622 87 5 10.0 11.0 0.00 0.56 0.15 83 1001.9
20150802021122 86 12 1.0 12.0 0.00 0.56 0.15 82 1002.0
20150802020621 86 278 6.0 13.0 0.00 0.56 0.15 83 1002.0
20150802020122 86 302 10.0 13.0 0.00 0.56 0.15 84 1002.0
20150802015621 86 304 10.0 12.0 0.00 0.56 0.15 85 1002.0
20150802015121 85 311 4.0 12.0 0.00 0.56 0.15 85 1002.0
20150802014621 85 30 4.0 9.0 0.00 0.56 0.15 85 1002.0
20150802014121 85 307 3.0 9.0 0.00 0.56 0.15 86 1002.4
20150802013621 85 304 4.0 6.0 0.00 0.56 0.15 86 1002.4
20150802013120 84 315 3.0 11.0 0.00 0.56 0.15 87 1002.4
20150802012620 84 5 2.0 11.0 0.00 0.56 0.15 89 1002.5
20150802012121 84 296 3.0 11.0 0.00 0.56 0.15 87 1002.5
20150802011620 84 310 3.0 10.0 0.00 0.56 0.15 88 1002.5
20150802011120 83 293 7.0 10.0 0.00 0.56 0.15 87 1002.5
20150802010620 83 311 4.0 12.0 0.00 0.56 0.15 87 1002.5
20150802010120 84 327 4.0 12.0 0.00 0.56 0.15 87 1002.5
20150802005620 85 321 4.0 10.0 0.00 0.56 0.15 86 1002.5
20150802005119 86 16 5.0 6.0 0.08 0.56 0.15 86 1002.5
20150802004620 86 24 2.0 11.0 0.08 0.56 0.15 87 1002.5
20150802004120 86 316 0.0 13.0 0.08 0.56 0.15 88 1003.0
20150802003619 85 323 7.0 13.0 0.08 0.56 0.15 89 1003.0
20150802003119 85 308 9.0 9.0 0.08 0.56 0.15 91 1003.0
20150802002619 85 306 0.0 6.0 0.08 0.61 0.15 92 1003.1
20150802002119 84 355 0.0 10.0 0.08 0.68 0.15 92 1003.1
20150802001618 84 311 0.0 10.0 0.08 0.78 0.15 93 1003.1
20150802001118 83 292 5.0 7.0 0.08 0.80 0.15 93 1003.4
20150802000619 82 313 1.0 7.0 0.08 0.80 0.15 92 1003.4
20150802000118 82 302 2.0 14.0 0.08 0.80 0.15 90 1003.4
20150801235618 82 310 7.0 14.0 0.08 0.80 0.15 88 1003.1
20150801235118 83 18 8.0 10.0 0.00 0.72 0.07 91 1003.1
20150801234618 83 302 3.0 9.0 0.00 0.72 0.07 91 1003.1
20150801234117 83 306 5.0 9.0 0.00 0.72 0.07 91 1003.3
20150801233617 83 313 6.0 6.0 0.00 0.72 0.07 92 1003.3
20150801233118 83 310 0.0 6.0 0.00 0.72 0.07 92 1003.3
20150801232617 83 311 1.0 6.0 0.00 0.72 0.07 91 1003.6
20150801232117 83 298 2.0 6.0 0.00 0.72 0.07 91 1003.6
20150801231617 82 295 3.0 7.0 0.00 0.72 0.07 92 1003.6
20150801231117 82 300 1.0 7.0 0.00 0.72 0.07 92 1003.6
20150801230616 82 292 3.0 7.0 0.00 0.72 0.07 91 1003.6
20150801230116 82 305 3.0 9.0 0.00 0.72 0.07 91 1003.6
20150801225617 82 280 3.0 9.0 0.00 0.72 0.07 91 1003.6
20150801225116 82 286 3.0 10.0 0.00 0.72 0.07 92 1003.6
20150801224616 82 297 6.0 12.0 0.00 0.72 0.07 92 1003.6
20150801224116 82 320 7.0 13.0 0.00 0.72 0.07 92 1003.6
20150801223616 82 294 5.0 13.0 0.00 0.72 0.07 93 1003.6
20150801223115 82 301 4.0 6.0 0.00 0.72 0.07 94 1003.6
20150801222615 82 308 3.0 7.0 0.00 0.72 0.07 95 1003.2
20150801222115 82 304 5.0 7.0 0.00 0.72 0.07 95 1003.2
20150801221615 82 316 2.0 4.0 0.00 0.72 0.07 95 1003.2
20150801221115 81 304 0.0 0.0 0.00 0.72 0.07 95 1003.5
20150801220615 81 303 0.0 0.0 0.00 0.72 0.07 95 1003.5
20150801220115 81 304 0.0 0.0 0.00 0.72 0.07 96 1003.5
20150801215614 81 306 0.0 5.0 0.00 0.72 0.07 96 1003.5
20150801215115 81 304 0.0 5.0 0.04 0.72 0.07 96 1003.5
20150801214614 80 304 0.0 0.0 0.05 0.72 0.07 96 1003.5
20150801214114 80 312 0.0 0.0 0.06 0.72 0.07 96 1003.5
20150801213614 80 312 0.0 0.0 0.06 0.72 0.07 96 1003.5
20150801213114 80 312 0.0 0.0 0.06 0.72 0.07 96 1003.5
20150801212614 79 312 0.0 0.0 0.06 0.72 0.07 95 1003.2
20150801212114 79 269 0.0 2.0 0.06 0.72 0.07 95 1003.2
20150801211614 79 286 0.0 5.0 0.06 0.72 0.07 95 1003.2
20150801211114 79 290 2.0 6.0 0.06 0.72 0.07 95 1003.2
20150801210613 79 292 2.0 6.0 0.06 0.72 0.07 95 1003.2
20150801210113 79 300 1.0 11.0 0.06 0.72 0.07 95 1003.2
20150801205613 79 317 4.0 11.0 0.06 0.72 0.07 95 1003.5
20150801205113 80 295 6.0 7.0 0.02 0.68 0.03 96 1003.5
20150801204612 79 296 0.0 0.0 0.01 0.67 0.02 96 1003.5
20150801204112 79 296 0.0 0.0 0.00 0.66 0.01 95 1003.2
20150801203613 79 296 0.0 0.0 0.00 0.66 0.01 95 1003.2
20150801203112 79 296 0.0 0.0 0.00 0.66 0.01 95 1003.2
20150801202612 79 296 0.0 0.0 0.00 0.66 0.01 95 1003.1
20150801202112 79 296 0.0 0.0 0.00 0.66 0.01 95 1003.1
20150801201612 79 296 0.0 0.0 0.00 0.66 0.01 95 1003.1
20150801201112 79 296 0.0 0.0 0.00 0.66 0.01 95 1003.1
20150801200611 79 296 0.0 0.0 0.00 0.66 0.01 95 1003.1
20150801200111 79 296 0.0 0.0 0.00 0.66 0.01 95 1003.1
20150801195612 79 296 0.0 0.0 0.00 0.66 0.01 95 1003.0
20150801195111 79 296 0.0 0.0 0.00 0.66 0.01 95 1003.0
20150801194611 79 296 0.0 0.0 0.00 0.66 0.01 95 1003.0
20150801194111 80 296 0.0 0.0 0.00 0.66 0.01 95 1002.5
20150801193611 80 296 0.0 0.0 0.00 0.66 0.01 95 1002.5
20150801193110 80 296 0.0 0.0 0.00 0.66 0.01 95 1002.5
20150801192610 80 296 0.0 0.0 0.00 0.66 0.01 95 1002.7
20150801192110 79 295 0.0 0.0 0.00 0.66 0.01 95 1002.7
20150801191610 79 295 0.0 0.0 0.00 0.66 0.01 95 1002.7
20150801191110 79 295 0.0 0.0 0.00 0.66 0.01 95 1002.5
20150801190610 79 304 0.0 0.0 0.00 0.66 0.01 95 1002.5
20150801190110 79 297 0.0 0.0 0.00 0.66 0.01 95 1002.5
20150801185609 79 295 0.0 0.0 0.00 0.66 0.01 94 1002.8
20150801185109 79 294 0.0 0.0 0.00 0.66 0.01 94 1002.8
20150801184609 79 298 0.0 0.0 0.00 0.66 0.01 94 1002.8
20150801184109 79 297 0.0 0.0 0.01 0.66 0.01 94 1002.8
20150801183609 79 296 0.0 0.0 0.01 0.66 0.01 94 1002.8
20150801183109 79 296 0.0 0.0 0.01 0.66 0.01 94 1002.8
20150801182608 79 296 0.0 0.0 0.01 0.66 0.01 94 1003.0
20150801182108 79 296 0.0 0.0 0.01 0.66 0.01 94 1003.0
20150801181608 79 298 0.0 0.0 0.01 0.66 0.01 94 1003.0
20150801181108 78 298 0.0 0.0 0.01 0.66 0.01 94 1003.0
20150801180608 78 298 0.0 0.0 0.01 0.66 0.01 94 1003.0
20150801180108 78 298 0.0 0.0 0.01 0.66 0.01 94 1003.0
20150801175608 78 300 0.0 0.0 0.01 0.66 0.01 94 1003.0
20150801175107 78 293 0.0 0.0 0.01 0.66 0.01 94 1003.0
20150801174607 78 290 0.0 0.0 0.01 0.66 0.01 93 1003.0
20150801174107 78 296 0.0 4.0 0.00 0.65 0.00 93 1003.0
20150801173607 78 296 0.0 5.0 0.00 0.65 0.00 93 1003.0
20150801173107 79 286 3.0 5.0 0.00 0.65 0.00 93 1003.0
20150801172607 79 294 3.0 5.0 0.00 0.65 0.00 93 1003.3
20150801172107 79 300 2.0 9.0 0.00 0.65 0.00 93 1003.3
20150801171607 79 304 3.0 9.0 0.00 0.65 0.00 93 1003.3
20150801171106 79 325 2.0 10.0 0.00 0.65 0.00 94 1003.6
20150801170607 79 296 2.0 10.0 0.00 0.65 0.00 94 1003.6
20150801170107 79 299 0.0 2.0 0.00 0.65 0.00 94 1003.6
20150801165607 79 297 0.0 4.0 0.00 0.65 0.00 94 1003.5
20150801165106 79 297 1.0 4.0 0.00 0.65 0.00 94 1003.5
20150801164606 79 298 3.0 4.0 0.00 0.65 0.00 94 1003.5
20150801164106 78 298 0.0 0.0 0.00 0.65 0.00 94 1003.6
20150801163605 78 298 0.0 0.0 0.00 0.65 0.00 94 1003.6
20150801163105 79 298 0.0 0.0 0.00 0.65 0.00 94 1003.6
20150801162605 79 298 0.0 0.0 0.00 0.65 0.00 93 1003.5